Hourly Data Report for August 01, 2021

KUGLUKTUK A
NUNAVUT
Current Station Operator: NAVCAN

67°49'00.000" N
115°08'38.000" W
22.60 m
2300903
71938
YCO

Download Data

Hourly Data (August 2021)
Hourly Data Report for August 1, 2021
TIME
LST
Temp Definition
°C
Dew Point Definition
°C
Rel Hum Definition
%
Precip. Amount Definition
mm

Wind Dir Definition
10's deg

Wind Spd Definition
km/h
Visibility Definition
km
Stn Press Definition
kPa
Hmdx Definition


Wind Chill Definition


Weather Definition


00:00 14.7 12.3 85   18 6 24.1 101.14     LegendNANA
01:00 13.2 11.5 89   32 9 24.1 101.18     LegendNANA
02:00 14.1 12.0 87   12 5 24.1 101.19     Mostly Cloudy
03:00 13.3 11.3 88   8 9 24.1 101.20     LegendNANA
04:00 12.1 10.9 93   14 14 24.1 101.21     LegendNANA
05:00 12.5 12.0 97   2 8 24.1 101.27     Mostly Cloudy
06:00 12.3 11.3 94   6 9 24.1 101.28     LegendNANA
07:00 13.2 12.0 92   36 2 24.1 101.28     LegendNANA
08:00 15.2 12.5 84   36 2 24.1 101.30     Mostly Cloudy
09:00 14.7 12.6 87   1 12 24.1 101.32     LegendNANA
10:00 15.8 12.5 81   2 10 24.1 101.35     LegendNANA
11:00 17.2 12.7 75   10 8 24.1 101.32     Mainly Clear
12:00 19.2 13.3 68   6 8 24.1 101.31     LegendNANA
13:00 19.9 13.9 68   7 15 24.1 101.26     LegendNANA
14:00 20.3 14.0 67   8 17 24.1 101.21     Mainly Clear
15:00 20.1 14.2 69   9 18 24.1 101.16     LegendNANA
16:00 24.2 14.6 54   10 14 24.1 101.09 28   LegendNANA
17:00 24.1 14.7 55   10 13 24.1 100.99 28   Mainly Clear
18:00 27.5 12.3 38   21 18 24.1 100.89 30   LegendNANA
19:00 27.1 13.7 43   23 20 24.1 100.83 30   LegendNANA
20:00 25.4 13.4 47   22 20 24.1 100.75 28   Mostly Cloudy
21:00 23.2 12.6 51   20 20 24.1 100.69 26   LegendNANA
22:00 20.7 12.3 58   27 18 24.1 100.71     LegendNANA
23:00 19.5 11.7 60   24 21 24.1 100.69     Mainly Clear

Notes on Data Quality.

Legend

  • E = Estimated
  • M = Missing
  • NA = Not Available*
  • [empty] = Indicates an unobserved value
Date modified: